Flag for Germany Weather past 2 weeks in Wegberg, North Rhine-Westphalia, Germany

Now
88 °F

Passing clouds.


Feels Like: 89 °F
Forecast: 67 / 88 °F
Wind: 7 mph from Southeast

Location: Monchengladbach Airport

Current Time: Jul 2, 2015 at 11:49:55 AM

Latest Report: Jul 2, 2015 at 11:20 AM


Visibility: N/A

Pressure: 30.04 "Hg

Humidity: 46%

Dew point: 64 °F

Location of WegbergLocation

Historic Weather in Wegberg — Graph

°F

Wegberg temperature yesterday

Maximum temperature yesterday: 91 °F (at 3:50 PM)
Minimum temperature yesterday: 70 °F (at 7:50 AM)
Average temperature yesterday: 85 °F

Past Weeks' High & Low Weather Summary

 TemperatureHumidityPressure
High91 °F (Jul 1, 3:50 PM)100% (Jun 18, 7:50 AM)30.27 "Hg (Jun 18, 7:50 AM)
Low50 °F (Jun 22, 8:20 PM)29% (Jun 30, 5:50 PM)29.71 "Hg (Jun 22, 6:20 PM)
Average67 °F64%30.06 "Hg
* Reported Jun 17 10:20 AM — Jul 2 10:20 AM, Wegberg, Weather by CustomWeather, © 2015

Note: Actual official high and low records may vary slightly from our data, if they occured in-between our weather recording intervals... More about our weather records

Advertising

Wegberg weather history for previous 24 hours

 ConditionsComfort  
Time TempWeatherWind HumidityBarometerVisibility
10:20 AM
Thu, Jul 2
84 °FPassing clouds.8 mph51%30.04 "HgN/A
9:50 AM82 °FPassing clouds.9 mph51%30.04 "HgN/A
9:20 AM82 °FPassing clouds.7 mph51%30.07 "HgN/A
8:50 AM81 °FPassing clouds.7 mph54%30.07 "HgN/A
8:20 AM79 °FPassing clouds.7 mph58%30.04 "HgN/A
7:50 AM77 °FPassing clouds.7 mph57%30.04 "HgN/A
8:20 PM
Wed, Jul 1
88 °FClear.10 mph33%29.98 "Hg10 mi
7:50 PM90 °FClear.10 mph31%29.98 "Hg10 mi
7:20 PM90 °FPassing clouds.12 mph33%29.98 "HgN/A
6:50 PM91 °FPassing clouds.12 mph32%29.98 "HgN/A
6:20 PM91 °FClear.10 mph34%29.98 "Hg10 mi
5:50 PM91 °FClear.14 mph32%30.01 "Hg10 mi
5:20 PM91 °FClear.12 mph32%30.01 "Hg10 mi
4:50 PM91 °FClear.10 mph30%30.01 "Hg10 mi
4:20 PM91 °FClear.10 mph30%30.01 "Hg10 mi
3:50 PM91 °FClear.12 mph30%30.01 "Hg10 mi
3:20 PM90 °FPassing clouds.14 mph29%30.01 "HgN/A
2:50 PM90 °FPassing clouds.12 mph29%30.01 "HgN/A
2:20 PM90 °FClear.15 mph29%30.04 "Hg10 mi
1:50 PM88 °FSunny.13 mph33%30.04 "Hg10 mi
1:20 PM88 °FSunny.14 mph33%30.04 "Hg10 mi
12:50 PM86 °FSunny.12 mph35%30.04 "Hg10 mi
12:20 PM86 °FSunny.14 mph35%30.04 "Hg10 mi
11:50 AM84 °FSunny.14 mph37%30.07 "Hg10 mi
11:20 AM82 °FSunny.12 mph42%30.07 "Hg10 mi
Weather by CustomWeather, © 2015

See weather overviewHow to use our weather pages